TimeEST,TemperatureF,Dew PointF,Humidity,Sea Level PressureIn,VisibilityMPH,Wind Direction,Wind SpeedMPH,Gust SpeedMPH,PrecipitationIn,Events,Conditions,WindDirDegrees,DateUTC
12:15 AM,44.6,42.6,93,30.26,5.0,Calm,Calm,-,N/A,,Clear,0,2012-12-04 05:15:00
12:35 AM,44.1,42.1,93,30.26,5.0,Calm,Calm,-,N/A,,Clear,0,2012-12-04 05:35:00
12:55 AM,44.1,42.3,93,30.26,5.0,Calm,Calm,-,N/A,,Clear,0,2012-12-04 05:55:00
1:15 AM,43.3,41.4,93,30.26,3.0,Calm,Calm,-,N/A,,Clear,0,2012-12-04 06:15:00
1:35 AM,43.5,41.4,92,30.26,1.2,Calm,Calm,-,N/A,,Mostly Cloudy,0,2012-12-04 06:35:00
1:55 AM,44.1,42.4,94,30.26,1.0,Calm,Calm,-,N/A,,Overcast,0,2012-12-04 06:55:00
2:15 AM,42.8,41.0,93,30.26,5.0,Calm,Calm,-,N/A,,Scattered Clouds,0,2012-12-04 07:15:00
2:35 AM,42.3,40.5,93,30.26,1.0,Calm,Calm,-,N/A,,Mist,0,2012-12-04 07:35:00
2:55 AM,42.1,40.5,94,30.26,7.0,Calm,Calm,-,N/A,,Clear,0,2012-12-04 07:55:00
3:15 AM,42.4,40.6,93,30.26,1.5,Calm,Calm,-,N/A,,Scattered Clouds,0,2012-12-04 08:15:00
3:55 AM,39.7,38.1,94,30.25,1.8,Calm,Calm,-,N/A,,Overcast,0,2012-12-04 08:55:00
4:15 AM,40.6,39.2,95,30.25,5.0,Calm,Calm,-,N/A,,Overcast,0,2012-12-04 09:15:00
4:35 AM,40.5,38.7,93,30.25,2.5,Calm,Calm,-,N/A,,Overcast,0,2012-12-04 09:35:00
4:55 AM,41.2,39.6,94,30.25,4.0,Calm,Calm,-,N/A,,Overcast,0,2012-12-04 09:55:00
5:15 AM,41.9,40.1,93,30.25,7.0,Calm,Calm,-,N/A,,Overcast,0,2012-12-04 10:15:00
5:35 AM,42.1,40.1,93,30.25,7.0,Calm,Calm,-,N/A,,Overcast,0,2012-12-04 10:35:00
5:55 AM,41.9,39.7,92,30.25,7.0,Calm,Calm,-,N/A,,Overcast,0,2012-12-04 10:55:00
6:15 AM,43.0,41.0,93,30.26,7.0,Calm,Calm,-,N/A,,Overcast,0,2012-12-04 11:15:00
6:35 AM,43.2,41.0,92,30.26,7.0,Calm,Calm,-,N/A,,Mostly Cloudy,0,2012-12-04 11:35:00
6:55 AM,42.6,40.5,92,30.26,7.0,Calm,Calm,-,N/A,,Mostly Cloudy,0,2012-12-04 11:55:00
7:15 AM,41.2,39.0,92,30.26,7.0,Calm,Calm,-,N/A,,Scattered Clouds,0,2012-12-04 12:15:00
7:35 AM,41.2,39.4,93,30.26,2.5,Calm,Calm,-,N/A,,Mostly Cloudy,0,2012-12-04 12:35:00
7:55 AM,41.9,40.3,94,30.27,4.0,Calm,Calm,-,N/A,,Mostly Cloudy,0,2012-12-04 12:55:00
8:15 AM,42.8,41.0,93,30.27,5.0,Calm,Calm,-,N/A,,Mostly Cloudy,0,2012-12-04 13:15:00
8:35 AM,43.9,41.7,92,30.27,7.0,Calm,Calm,-,N/A,,Scattered Clouds,0,2012-12-04 13:35:00
8:55 AM,47.1,44.8,92,30.27,7.0,Calm,Calm,-,N/A,,Mostly Cloudy,0,2012-12-04 13:55:00
9:15 AM,50.0,46.8,89,30.27,7.0,Calm,Calm,-,N/A,,Scattered Clouds,0,2012-12-04 14:15:00
9:35 AM,54.3,49.8,85,30.27,7.0,SW,3.5,-,N/A,,Clear,220,2012-12-04 14:35:00
9:55 AM,58.1,50.5,76,30.26,10.0,SW,3.5,-,N/A,,Clear,230,2012-12-04 14:55:00
10:15 AM,60.6,50.9,70,30.26,10.0,WSW,4.6,-,N/A,,Clear,240,2012-12-04 15:15:00
10:35 AM,63.0,50.5,64,30.26,10.0,SW,4.6,-,N/A,,Clear,230,2012-12-04 15:35:00
10:55 AM,64.8,50.9,61,30.25,10.0,SSW,5.8,-,N/A,,Clear,210,2012-12-04 15:55:00
11:15 AM,67.8,50.9,55,30.24,10.0,SSW,6.9,-,N/A,,Clear,200,2012-12-04 16:15:00
11:35 AM,68.9,49.5,50,30.23,10.0,SW,10.4,-,N/A,,Clear,220,2012-12-04 16:35:00
11:55 AM,69.8,48.4,46,30.22,10.0,SSW,11.5,-,N/A,,Clear,210,2012-12-04 16:55:00
12:15 PM,70.3,48.4,46,30.20,10.0,SSW,9.2,-,N/A,,Clear,210,2012-12-04 17:15:00
12:35 PM,70.2,47.8,45,30.19,10.0,SSW,8.1,-,N/A,,Clear,200,2012-12-04 17:35:00
1:15 PM,71.4,47.5,42,30.16,10.0,SW,10.4,-,N/A,,Clear,220,2012-12-04 18:15:00
1:35 PM,71.8,47.5,42,30.16,10.0,SW,11.5,-,N/A,,Clear,230,2012-12-04 18:35:00
1:55 PM,71.1,47.7,43,30.16,10.0,SW,12.7,-,N/A,,Clear,220,2012-12-04 18:55:00
2:15 PM,70.7,47.8,44,30.15,10.0,SW,13.8,-,N/A,,Clear,230,2012-12-04 19:15:00
2:35 PM,69.1,48.2,47,30.15,10.0,SW,11.5,-,N/A,,Clear,220,2012-12-04 19:35:00
2:55 PM,69.8,48.4,46,30.14,10.0,SW,8.1,-,N/A,,Clear,230,2012-12-04 19:55:00
3:15 PM,69.8,48.0,46,30.13,10.0,SSW,8.1,-,N/A,,Clear,200,2012-12-04 20:15:00
3:35 PM,69.4,48.4,47,30.13,10.0,SSW,9.2,-,N/A,,Clear,200,2012-12-04 20:35:00
3:55 PM,68.7,48.2,48,30.14,10.0,South,9.2,-,N/A,,Clear,190,2012-12-04 20:55:00
4:15 PM,68.0,48.2,49,30.13,10.0,South,8.1,-,N/A,,Clear,190,2012-12-04 21:15:00
4:35 PM,68.0,48.2,49,30.13,10.0,South,8.1,-,N/A,,Clear,190,2012-12-04 21:35:00
4:55 PM,66.6,48.0,51,30.13,10.0,South,5.8,-,N/A,,Scattered Clouds,190,2012-12-04 21:55:00
5:15 PM,65.5,47.7,53,30.13,10.0,SSW,6.9,-,N/A,,Scattered Clouds,200,2012-12-04 22:15:00
5:55 PM,65.7,47.5,52,30.13,10.0,SSW,8.1,-,N/A,,Scattered Clouds,200,2012-12-04 22:55:00
6:15 PM,64.6,47.8,55,30.13,10.0,South,6.9,-,N/A,,Mostly Cloudy,190,2012-12-04 23:15:00
6:35 PM,63.9,47.7,56,30.13,10.0,SSW,5.8,-,N/A,,Mostly Cloudy,200,2012-12-04 23:35:00
6:55 PM,62.6,47.7,58,30.13,10.0,SSW,6.9,-,N/A,,Clear,200,2012-12-04 23:55:00
7:15 PM,62.1,47.7,59,30.13,10.0,South,5.8,-,N/A,,Scattered Clouds,190,2012-12-05 00:15:00
7:35 PM,59.5,47.3,64,30.13,10.0,Calm,Calm,-,N/A,,Scattered Clouds,0,2012-12-05 00:35:00
7:55 PM,57.4,47.1,69,30.12,10.0,SW,3.5,-,N/A,,Clear,220,2012-12-05 00:55:00
8:15 PM,55.6,46.4,71,30.11,10.0,SW,4.6,-,N/A,,Scattered Clouds,230,2012-12-05 01:15:00
8:35 PM,57.9,46.9,67,30.11,10.0,South,5.8,-,N/A,,Mostly Cloudy,190,2012-12-05 01:35:00
8:55 PM,60.8,47.1,61,30.11,10.0,South,6.9,-,N/A,,Overcast,190,2012-12-05 01:55:00
9:15 PM,62.4,46.6,56,30.11,10.0,South,10.4,-,N/A,,Mostly Cloudy,190,2012-12-05 02:15:00
9:35 PM,63.0,46.4,55,30.10,10.0,South,11.5,-,N/A,,Mostly Cloudy,190,2012-12-05 02:35:00
9:55 PM,63.1,46.4,54,30.10,10.0,SSW,9.2,-,N/A,,Mostly Cloudy,210,2012-12-05 02:55:00
10:15 PM,63.3,46.4,54,30.11,10.0,South,10.4,-,N/A,,Scattered Clouds,190,2012-12-05 03:15:00
10:35 PM,63.5,46.4,54,30.11,10.0,SSW,8.1,-,N/A,,Scattered Clouds,200,2012-12-05 03:35:00
10:55 PM,62.6,46.4,55,30.10,10.0,South,5.8,-,N/A,,Overcast,170,2012-12-05 03:55:00
11:15 PM,61.5,46.4,58,30.09,10.0,South,4.6,-,N/A,,Scattered Clouds,170,2012-12-05 04:15:00
11:35 PM,61.3,46.0,57,30.08,10.0,South,8.1,-,N/A,,Scattered Clouds,190,2012-12-05 04:35:00
11:55 PM,63.7,45.9,52,30.08,10.0,SSW,10.4,16.1,N/A,,Clear,210,2012-12-05 04:55:00